This is the latest recevied weather packets stored in our database for station/object KE8RXN. If no packets are shown the sender has not sent any weather packets the latest 1 day(s).
| Time | Temp. | Humidity | Pressure | Rain* | Wind** | Luminosity | Snow |
|---|---|---|---|---|---|---|---|
| 1778025516 | 10.56° C | 49% | 1012.1 hPa | 0 mm | 0 m/s | 23 W/m² | - |
| 1778025214 | 10.56° C | 47% | 1012.1 hPa | 0 mm | 0.45 m/s, 358° | 29 W/m² | - |
| 1778024911 | 10.56° C | 48% | 1012.2 hPa | 0 mm | 0.45 m/s, 12° | 28 W/m² | - |
| 1778024609 | 10.56° C | 47% | 1012.4 hPa | 0 mm | 0.89 m/s, 265° | 35 W/m² | - |
| 1778024316 | 10.56° C | 47% | 1012 hPa | 0 mm | 0.89 m/s, 216° | 36 W/m² | - |
| 1778024003 | 10.56° C | 47% | 1012 hPa | 0 mm | 0.45 m/s, 10° | 35 W/m² | - |
| 1778023700 | 10.56° C | 46% | 1012.2 hPa | 0 mm | 0.45 m/s, 288° | 44 W/m² | - |
| 1778023398 | 10.56° C | 45% | 1012.1 hPa | 0 mm | 0.89 m/s, 239° | 44 W/m² | - |
| 1778023094 | 10.56° C | 45% | 1011.9 hPa | 0 mm | 0.89 m/s, 273° | 50 W/m² | - |
| 1778022793 | 10.56° C | 44% | 1012.1 hPa | 0 mm | 2.24 m/s, 288° | 60 W/m² | - |
| 1778022491 | 10.56° C | 45% | 1012.1 hPa | 0 mm | 0.45 m/s, 319° | 59 W/m² | - |
| 1778022187 | 10.56° C | 44% | 1012 hPa | 0 mm | 0.89 m/s, 315° | 72 W/m² | - |
| 1778021883 | 10.56° C | 44% | 1012 hPa | 0 mm | 1.34 m/s, 317° | 78 W/m² | - |
| 1778021581 | 11.11° C | 44% | 1012.1 hPa | 0 mm | 0.89 m/s, 316° | 69 W/m² | - |
| 1778021275 | 11.11° C | 44% | 1012.2 hPa | 0 mm | 1.34 m/s, 316° | 71 W/m² | - |
| 1778020974 | 11.11° C | 45% | 1012.1 hPa | 0 mm | 0.89 m/s, 0° | 85 W/m² | - |
| 1778020671 | 10.56° C | 45% | 1012.2 hPa | 0 mm | 1.34 m/s, 229° | 95 W/m² | - |
| 1778020367 | 11.11° C | 44% | 1012 hPa | 0 mm | 1.34 m/s, 287° | 100 W/m² | - |
| 1778020063 | 11.11° C | 45% | 1012.1 hPa | 0 mm | 1.34 m/s, 248° | 85 W/m² | - |
| 1778019760 | 11.11° C | 45% | 1012 hPa | 0 mm | 0.89 m/s, 349° | 91 W/m² | - |
| 1778019457 | 11.11° C | 44% | 1012.1 hPa | 0 mm | 1.34 m/s, 246° | 116 W/m² | - |
| 1778019153 | 11.11° C | 46% | 1012.1 hPa | 0 mm | 0.89 m/s, 327° | 114 W/m² | - |
| 1778018850 | 11.11° C | 45% | 1012 hPa | 0 mm | 0.45 m/s, 257° | 111 W/m² | - |
| 1778018548 | 11.11° C | 45% | 1012.1 hPa | 0 mm | 0.89 m/s, 319° | 108 W/m² | - |
| 1778018246 | 11.11° C | 44% | 1012 hPa | 0 mm | 1.34 m/s, 291° | 107 W/m² | - |
* Rain latest hour (hover to see other rain measurements)
** Current wind speed in m/s (hover to see current wind gust speed)